Year,Month,Day,Hour,Minute,Value (Times are PST for temperature in C)
2017,07,23,00,00,17.30
2017,07,23,00,01,17.20
2017,07,23,00,02,17.20
2017,07,23,00,03,17.20
2017,07,23,00,04,17.20
2017,07,23,00,05,17.10
2017,07,23,00,06,17.10
2017,07,23,00,07,17.00
2017,07,23,00,08,17.00
2017,07,23,00,09,17.00
2017,07,23,00,10,17.00
2017,07,23,00,11,16.90
2017,07,23,00,12,16.90
2017,07,23,00,13,16.90
2017,07,23,00,14,16.90
2017,07,23,00,15,16.90
2017,07,23,00,16,16.90
2017,07,23,00,17,16.80
2017,07,23,00,18,16.80
2017,07,23,00,19,16.80
2017,07,23,00,20,16.80
2017,07,23,00,21,16.70
2017,07,23,00,22,16.70
2017,07,23,00,23,16.70
2017,07,23,00,24,16.70
2017,07,23,00,25,16.70
2017,07,23,00,26,16.70
2017,07,23,00,27,16.60
2017,07,23,00,28,16.60
2017,07,23,00,29,16.60
2017,07,23,00,30,16.60
2017,07,23,00,31,16.50
2017,07,23,00,32,16.50
2017,07,23,00,33,16.50
2017,07,23,00,34,16.40
2017,07,23,00,35,16.40
2017,07,23,00,36,16.40
2017,07,23,00,37,16.30
2017,07,23,00,38,16.30
2017,07,23,00,39,16.30
2017,07,23,00,40,16.30
2017,07,23,00,41,16.30
2017,07,23,00,42,16.30
2017,07,23,00,43,16.30
2017,07,23,00,44,16.30
2017,07,23,00,45,16.20
2017,07,23,00,46,16.20
2017,07,23,00,47,16.20
2017,07,23,00,48,16.20
2017,07,23,00,49,16.20
2017,07,23,00,50,16.20
2017,07,23,00,51,16.20
2017,07,23,00,52,16.20
2017,07,23,00,53,16.20
2017,07,23,00,54,16.20
2017,07,23,00,55,16.10
2017,07,23,00,56,16.10
2017,07,23,00,57,16.10
2017,07,23,00,58,16.10
2017,07,23,00,59,16.10
2017,07,23,01,00,16.10
2017,07,23,01,01,16.00
2017,07,23,01,02,16.00
2017,07,23,01,03,16.00
2017,07,23,01,04,16.00
2017,07,23,01,05,15.90
2017,07,23,01,06,15.90
2017,07,23,01,07,15.90
2017,07,23,01,08,15.90
2017,07,23,01,09,15.80
2017,07,23,01,10,15.80
2017,07,23,01,11,15.80
2017,07,23,01,12,15.80
2017,07,23,01,13,15.80
2017,07,23,01,14,15.80
2017,07,23,01,15,15.70
2017,07,23,01,16,15.70
2017,07,23,01,17,15.70
2017,07,23,01,18,15.70
2017,07,23,01,19,15.70
2017,07,23,01,20,15.70
2017,07,23,01,21,15.70
2017,07,23,01,22,15.70
2017,07,23,01,23,15.70
2017,07,23,01,24,15.70
2017,07,23,01,25,15.70
2017,07,23,01,26,15.70
2017,07,23,01,27,15.70
2017,07,23,01,28,15.70
2017,07,23,01,29,15.60
2017,07,23,01,30,15.60
2017,07,23,01,31,15.60
2017,07,23,01,32,15.60
2017,07,23,01,33,15.70
2017,07,23,01,34,15.70
2017,07,23,01,35,15.70
2017,07,23,01,36,15.70
2017,07,23,01,37,15.70
2017,07,23,01,38,15.70
2017,07,23,01,39,15.70
2017,07,23,01,40,15.70
2017,07,23,01,41,15.70
2017,07,23,01,42,15.70
2017,07,23,01,43,15.60
2017,07,23,01,44,15.60
2017,07,23,01,45,15.60
2017,07,23,01,46,15.60
2017,07,23,01,47,15.60
2017,07,23,01,48,15.50
2017,07,23,01,49,15.50
2017,07,23,01,50,15.50
2017,07,23,01,51,15.50
2017,07,23,01,52,15.50
2017,07,23,01,53,15.40
2017,07,23,01,54,15.40
2017,07,23,01,55,15.40
2017,07,23,01,56,15.40
2017,07,23,01,57,15.40
2017,07,23,01,58,15.40
2017,07,23,01,59,15.40
2017,07,23,02,00,15.30
2017,07,23,02,01,15.30
2017,07,23,02,02,15.30
2017,07,23,02,03,15.30
2017,07,23,02,04,15.30
2017,07,23,02,05,15.30
2017,07,23,02,06,15.30
2017,07,23,02,07,15.30
2017,07,23,02,08,15.30
2017,07,23,02,09,15.30
2017,07,23,02,10,15.30
2017,07,23,02,11,15.30
2017,07,23,02,12,15.30
2017,07,23,02,13,15.30
2017,07,23,02,14,15.30
2017,07,23,02,15,15.30
2017,07,23,02,16,15.20
2017,07,23,02,17,15.20
2017,07,23,02,18,15.20
2017,07,23,02,19,15.20
2017,07,23,02,20,15.30
2017,07,23,02,21,15.30
2017,07,23,02,22,15.30
2017,07,23,02,23,15.30
2017,07,23,02,24,15.30
2017,07,23,02,25,15.30
2017,07,23,02,26,15.30
2017,07,23,02,27,15.20
2017,07,23,02,28,15.30
2017,07,23,02,29,15.20
2017,07,23,02,30,15.20
2017,07,23,02,31,15.20
2017,07,23,02,32,15.20
2017,07,23,02,33,15.20
2017,07,23,02,34,15.20
2017,07,23,02,35,15.20
2017,07,23,02,36,15.20
2017,07,23,02,37,15.20
2017,07,23,02,38,15.20
2017,07,23,02,39,15.20
2017,07,23,02,40,15.20
2017,07,23,02,41,15.20
2017,07,23,02,42,15.20
2017,07,23,02,43,15.20
2017,07,23,02,44,15.10
2017,07,23,02,45,15.10
2017,07,23,02,46,15.10
2017,07,23,02,47,15.10
2017,07,23,02,48,15.10
2017,07,23,02,49,15.10
2017,07,23,02,50,15.00
2017,07,23,02,51,15.00
2017,07,23,02,52,15.00
2017,07,23,02,53,15.00
2017,07,23,02,54,15.00
2017,07,23,02,55,15.00
2017,07,23,02,56,15.00
2017,07,23,02,57,15.00
2017,07,23,02,58,14.90
2017,07,23,02,59,14.90
2017,07,23,03,00,14.80
2017,07,23,03,01,14.80
2017,07,23,03,02,14.80
2017,07,23,03,03,14.80
2017,07,23,03,04,14.80
2017,07,23,03,05,14.80
2017,07,23,03,06,14.80
2017,07,23,03,07,14.70
2017,07,23,03,08,14.70
2017,07,23,03,09,14.70
2017,07,23,03,10,14.70
2017,07,23,03,11,14.70
2017,07,23,03,12,14.70
2017,07,23,03,13,14.70
2017,07,23,03,14,14.70
2017,07,23,03,15,14.70
2017,07,23,03,16,14.80
2017,07,23,03,17,14.80
2017,07,23,03,18,14.70
2017,07,23,03,19,14.70
2017,07,23,03,20,14.70
2017,07,23,03,21,14.70
2017,07,23,03,22,14.70
2017,07,23,03,23,14.70
2017,07,23,03,24,14.70
2017,07,23,03,25,14.70
2017,07,23,03,26,14.70
2017,07,23,03,27,14.70
2017,07,23,03,28,14.70
2017,07,23,03,29,14.70
2017,07,23,03,30,14.70
2017,07,23,03,31,14.70
2017,07,23,03,32,14.70
2017,07,23,03,33,14.70
2017,07,23,03,34,14.70
2017,07,23,03,35,14.70
2017,07,23,03,36,14.60
2017,07,23,03,37,14.60
2017,07,23,03,38,14.60
2017,07,23,03,39,14.60
2017,07,23,03,40,14.60
2017,07,23,03,41,14.50
2017,07,23,03,42,14.50
2017,07,23,03,43,14.50
2017,07,23,03,44,14.50
2017,07,23,03,45,14.40
2017,07,23,03,46,14.40
2017,07,23,03,47,14.40
2017,07,23,03,48,14.40
2017,07,23,03,49,14.40
2017,07,23,03,50,14.40
2017,07,23,03,51,14.40
2017,07,23,03,52,14.40
2017,07,23,03,53,14.30
2017,07,23,03,54,14.30
2017,07,23,03,55,14.30
2017,07,23,03,56,14.30
2017,07,23,03,57,14.30
2017,07,23,03,58,14.30
2017,07,23,03,59,14.30
2017,07,23,04,00,14.20
2017,07,23,04,01,14.20
2017,07,23,04,02,14.10
2017,07,23,04,03,14.10
2017,07,23,04,04,14.00
2017,07,23,04,05,14.00
2017,07,23,04,06,14.00
2017,07,23,04,07,14.00
2017,07,23,04,08,14.00
2017,07,23,04,09,13.90
2017,07,23,04,10,14.00
2017,07,23,04,11,14.00
2017,07,23,04,12,13.90
2017,07,23,04,13,13.90
2017,07,23,04,14,13.90
2017,07,23,04,15,13.90
2017,07,23,04,16,13.90
2017,07,23,04,17,13.90
2017,07,23,04,18,13.90
2017,07,23,04,19,13.90
2017,07,23,04,20,13.90
2017,07,23,04,21,13.90
2017,07,23,04,22,13.80
2017,07,23,04,23,13.80
2017,07,23,04,24,13.80
2017,07,23,04,25,13.80
2017,07,23,04,26,13.70
2017,07,23,04,27,13.70
2017,07,23,04,28,13.70
2017,07,23,04,29,13.70
2017,07,23,04,30,13.70
2017,07,23,04,31,13.60
2017,07,23,04,32,13.60
2017,07,23,04,33,13.60
2017,07,23,04,34,13.60
2017,07,23,04,35,13.60
2017,07,23,04,36,13.60
2017,07,23,04,37,13.60
2017,07,23,04,38,13.60
2017,07,23,04,39,13.60
2017,07,23,04,40,13.60
2017,07,23,04,41,13.60
2017,07,23,04,42,13.60
2017,07,23,04,43,13.60
2017,07,23,04,44,13.60
2017,07,23,04,45,13.60
2017,07,23,04,46,13.60
2017,07,23,04,47,13.70
2017,07,23,04,48,13.70
2017,07,23,04,49,13.70
2017,07,23,04,50,13.70
2017,07,23,04,51,13.70
2017,07,23,04,52,13.70
2017,07,23,04,53,13.70
2017,07,23,04,54,13.70
2017,07,23,04,55,13.70
2017,07,23,04,56,13.70
2017,07,23,04,57,13.70
2017,07,23,04,58,13.70
2017,07,23,04,59,13.70
2017,07,23,05,00,13.70
2017,07,23,05,01,13.70
2017,07,23,05,02,13.70
2017,07,23,05,03,13.80
2017,07,23,05,04,13.80
2017,07,23,05,05,13.80
2017,07,23,05,06,13.80
2017,07,23,05,07,13.80
2017,07,23,05,08,13.80
2017,07,23,05,09,13.80
2017,07,23,05,10,13.80
2017,07,23,05,11,13.80
2017,07,23,05,12,13.80
2017,07,23,05,13,13.80
2017,07,23,05,14,13.80
2017,07,23,05,15,13.80
2017,07,23,05,16,13.80
2017,07,23,05,17,13.80
2017,07,23,05,18,13.80
2017,07,23,05,19,13.80
2017,07,23,05,20,13.80
2017,07,23,05,21,13.80
2017,07,23,05,22,13.80
2017,07,23,05,23,13.80
2017,07,23,05,24,13.80
2017,07,23,05,25,13.80
2017,07,23,05,26,13.80
2017,07,23,05,27,13.80
2017,07,23,05,28,13.80
2017,07,23,05,29,13.80
2017,07,23,05,30,13.80
2017,07,23,05,31,13.80
2017,07,23,05,32,13.80
2017,07,23,05,33,13.70
2017,07,23,05,34,13.70
2017,07,23,05,35,13.70
2017,07,23,05,36,13.70
2017,07,23,05,37,13.70
2017,07,23,05,38,13.80
2017,07,23,05,39,13.80
2017,07,23,05,40,13.80
2017,07,23,05,41,13.80
2017,07,23,05,42,13.70
2017,07,23,05,43,13.70
2017,07,23,05,44,13.70
2017,07,23,05,45,13.70
2017,07,23,05,46,13.60
2017,07,23,05,47,13.60
2017,07,23,05,48,13.60
2017,07,23,05,49,13.60
2017,07,23,05,50,13.60
2017,07,23,05,51,13.60
2017,07,23,05,52,13.60
2017,07,23,05,53,13.60
2017,07,23,05,54,13.50
2017,07,23,05,55,13.50
2017,07,23,05,56,13.50
2017,07,23,05,57,13.50
2017,07,23,05,58,13.50
2017,07,23,05,59,13.40
2017,07,23,06,00,13.40
2017,07,23,06,01,13.40
2017,07,23,06,02,13.30
2017,07,23,06,03,13.30
2017,07,23,06,04,13.30
2017,07,23,06,05,13.30
2017,07,23,06,06,13.30
2017,07,23,06,07,13.30
2017,07,23,06,08,13.30
2017,07,23,06,09,13.30
2017,07,23,06,10,13.30
2017,07,23,06,11,13.30
2017,07,23,06,12,13.30
2017,07,23,06,13,13.30
2017,07,23,06,14,13.40
2017,07,23,06,15,13.40
2017,07,23,06,16,13.40
2017,07,23,06,17,13.40
2017,07,23,06,18,13.40
2017,07,23,06,19,13.40
2017,07,23,06,20,13.40
2017,07,23,06,21,13.50
2017,07,23,06,22,13.50
2017,07,23,06,23,13.50
2017,07,23,06,24,13.60
2017,07,23,06,25,13.60
2017,07,23,06,26,13.70
2017,07,23,06,27,13.70
2017,07,23,06,28,13.70
2017,07,23,06,29,13.70
2017,07,23,06,30,13.70
2017,07,23,06,31,13.70
2017,07,23,06,32,13.70
2017,07,23,06,33,13.60
2017,07,23,06,34,13.60
2017,07,23,06,35,13.60
2017,07,23,06,36,13.60
2017,07,23,06,37,13.60
2017,07,23,06,38,13.60
2017,07,23,06,39,13.60
2017,07,23,06,40,13.60
2017,07,23,06,41,13.60
2017,07,23,06,42,13.60
2017,07,23,06,43,13.70
2017,07,23,06,44,13.70
2017,07,23,06,45,13.70
2017,07,23,06,46,13.70
2017,07,23,06,47,13.70
2017,07,23,06,48,13.70
2017,07,23,06,49,13.70
2017,07,23,06,50,13.70
2017,07,23,06,51,13.80
2017,07,23,06,52,13.80
2017,07,23,06,53,13.80
2017,07,23,06,54,13.80
2017,07,23,06,55,13.80
2017,07,23,06,56,13.80
2017,07,23,06,57,13.90
2017,07,23,06,58,13.90
2017,07,23,06,59,14.00
2017,07,23,07,00,14.10
2017,07,23,07,01,14.10
2017,07,23,07,02,14.20
2017,07,23,07,03,14.20
2017,07,23,07,04,14.20
2017,07,23,07,05,14.30
2017,07,23,07,06,14.30
2017,07,23,07,07,14.30
2017,07,23,07,08,14.40
2017,07,23,07,09,14.40
2017,07,23,07,10,14.40
2017,07,23,07,11,14.40
2017,07,23,07,12,14.50
2017,07,23,07,13,14.50
2017,07,23,07,14,14.50
2017,07,23,07,15,14.60
2017,07,23,07,16,14.60
2017,07,23,07,17,14.70
2017,07,23,07,18,14.70
2017,07,23,07,19,14.80
2017,07,23,07,20,14.80
2017,07,23,07,21,14.90
2017,07,23,07,22,15.00
2017,07,23,07,23,15.10
2017,07,23,07,24,15.20
2017,07,23,07,25,15.30
2017,07,23,07,26,15.40
2017,07,23,07,27,15.50
2017,07,23,07,28,15.50
2017,07,23,07,29,15.60
2017,07,23,07,30,15.70
2017,07,23,07,31,15.70
2017,07,23,07,32,15.70
2017,07,23,07,33,15.80
2017,07,23,07,34,15.80
2017,07,23,07,35,15.80
2017,07,23,07,36,15.80
2017,07,23,07,37,15.80
2017,07,23,07,38,15.90
2017,07,23,07,39,15.90
2017,07,23,07,40,15.90
2017,07,23,07,41,15.90
2017,07,23,07,42,15.90
2017,07,23,07,43,16.00
2017,07,23,07,44,16.00
2017,07,23,07,45,16.00
2017,07,23,07,46,16.00
2017,07,23,07,47,16.10
2017,07,23,07,48,16.10
2017,07,23,07,49,16.10
2017,07,23,07,50,16.10
2017,07,23,07,51,16.10
2017,07,23,07,52,16.10
2017,07,23,07,53,16.20
2017,07,23,07,54,16.20
2017,07,23,07,55,16.20
2017,07,23,07,56,16.20
2017,07,23,07,57,16.20
2017,07,23,07,58,16.20
2017,07,23,07,59,16.20
2017,07,23,08,00,16.20
2017,07,23,08,01,16.20
2017,07,23,08,02,16.20
2017,07,23,08,03,16.20
2017,07,23,08,04,16.20
2017,07,23,08,05,16.20
2017,07,23,08,06,16.30
2017,07,23,08,07,16.30
2017,07,23,08,08,16.30
2017,07,23,08,09,16.40
2017,07,23,08,10,16.40
2017,07,23,08,11,16.50
2017,07,23,08,12,16.50
2017,07,23,08,13,16.50
2017,07,23,08,14,16.60
2017,07,23,08,15,16.60
2017,07,23,08,16,16.70
2017,07,23,08,17,16.70
2017,07,23,08,18,16.80
2017,07,23,08,19,16.80
2017,07,23,08,20,16.90
2017,07,23,08,21,17.00
2017,07,23,08,22,17.10
2017,07,23,08,23,17.20
2017,07,23,08,24,17.20
2017,07,23,08,25,17.30
2017,07,23,08,26,17.30
2017,07,23,08,27,17.30
2017,07,23,08,28,17.40
2017,07,23,08,29,17.40
2017,07,23,08,30,17.50
2017,07,23,08,31,17.50
2017,07,23,08,32,17.50
2017,07,23,08,33,17.50
2017,07,23,08,34,17.50
2017,07,23,08,35,17.60
2017,07,23,08,36,17.60
2017,07,23,08,37,17.60
2017,07,23,08,38,17.60
2017,07,23,08,39,17.60
2017,07,23,08,40,17.70
2017,07,23,08,41,17.70
2017,07,23,08,42,17.80
2017,07,23,08,43,17.80
2017,07,23,08,44,17.90
2017,07,23,08,45,18.00
2017,07,23,08,46,18.00
2017,07,23,08,47,18.10
2017,07,23,08,48,18.10
2017,07,23,08,49,18.10
2017,07,23,08,50,18.20
2017,07,23,08,51,18.20
2017,07,23,08,52,18.20
2017,07,23,08,53,18.20
2017,07,23,08,54,18.20
2017,07,23,08,55,18.30
2017,07,23,08,56,18.30
2017,07,23,08,57,18.40
2017,07,23,08,58,18.50
2017,07,23,08,59,18.60
2017,07,23,09,00,18.60
2017,07,23,09,01,18.70
2017,07,23,09,02,18.70
2017,07,23,09,03,18.80
2017,07,23,09,04,18.90
2017,07,23,09,05,19.00
2017,07,23,09,06,19.10
2017,07,23,09,07,19.10
2017,07,23,09,08,19.10
2017,07,23,09,09,19.10
2017,07,23,09,10,19.40
2017,07,23,09,11,19.90
2017,07,23,09,12,19.90
2017,07,23,09,13,19.90
2017,07,23,09,14,19.90
2017,07,23,09,15,19.90
2017,07,23,09,16,19.90
2017,07,23,09,17,19.90
2017,07,23,09,18,19.90
2017,07,23,09,19,19.90
2017,07,23,09,20,19.90
2017,07,23,09,21,19.90
2017,07,23,09,22,19.90
2017,07,23,09,23,19.90
2017,07,23,09,24,19.90
2017,07,23,09,25,19.90
2017,07,23,09,26,20.00
2017,07,23,09,27,20.00
2017,07,23,09,28,20.00
2017,07,23,09,29,19.90
2017,07,23,09,30,19.80
2017,07,23,09,31,19.80
2017,07,23,09,32,19.80
2017,07,23,09,33,19.70
2017,07,23,09,34,19.80
2017,07,23,09,35,19.80
2017,07,23,09,36,19.80
2017,07,23,09,37,19.90
2017,07,23,09,38,19.90
2017,07,23,09,39,19.90
2017,07,23,09,40,19.90
2017,07,23,09,41,19.90
2017,07,23,09,42,19.90
2017,07,23,09,43,19.90
2017,07,23,09,44,19.90
2017,07,23,09,45,20.00
2017,07,23,09,46,20.00
2017,07,23,09,47,20.00
2017,07,23,09,48,20.00
2017,07,23,09,49,20.10
2017,07,23,09,50,20.10
2017,07,23,09,51,20.20
2017,07,23,09,52,20.20
2017,07,23,09,53,20.30
2017,07,23,09,54,20.30
2017,07,23,09,55,20.40
2017,07,23,09,56,20.40
2017,07,23,09,57,20.40
2017,07,23,09,58,20.40
2017,07,23,09,59,20.40
2017,07,23,10,00,20.40
2017,07,23,10,01,20.40
2017,07,23,10,02,20.40
2017,07,23,10,03,20.50
2017,07,23,10,04,20.50
2017,07,23,10,05,20.50
2017,07,23,10,06,20.50
2017,07,23,10,07,20.50
2017,07,23,10,08,20.50
2017,07,23,10,09,20.50
2017,07,23,10,10,20.50
2017,07,23,10,11,20.40
2017,07,23,10,12,20.40
2017,07,23,10,13,20.40
2017,07,23,10,14,20.40
2017,07,23,10,15,20.40
2017,07,23,10,16,20.40
2017,07,23,10,17,20.40
2017,07,23,10,18,20.40
2017,07,23,10,19,20.40
2017,07,23,10,20,20.40
2017,07,23,10,21,20.40
2017,07,23,10,22,20.40
2017,07,23,10,23,20.50
2017,07,23,10,24,20.50
2017,07,23,10,25,20.60
2017,07,23,10,26,20.60
2017,07,23,10,27,20.70
2017,07,23,10,28,20.70
2017,07,23,10,29,20.60
2017,07,23,10,30,20.60
2017,07,23,10,31,20.60
2017,07,23,10,32,20.60
2017,07,23,10,33,20.70
2017,07,23,10,34,20.70
2017,07,23,10,35,20.70
2017,07,23,10,36,20.80
2017,07,23,10,37,20.80
2017,07,23,10,38,20.80
2017,07,23,10,39,20.90
2017,07,23,10,40,20.90
2017,07,23,10,41,21.00
2017,07,23,10,42,21.00
2017,07,23,10,43,21.10
2017,07,23,10,44,21.20
2017,07,23,10,45,21.20
2017,07,23,10,46,21.10
2017,07,23,10,47,21.10
2017,07,23,10,48,21.10
2017,07,23,10,49,21.10
2017,07,23,10,50,21.20
2017,07,23,10,51,21.30
2017,07,23,10,52,21.40
2017,07,23,10,53,21.50
2017,07,23,10,54,21.60
2017,07,23,10,55,21.70
2017,07,23,10,56,21.70
2017,07,23,10,57,21.80
2017,07,23,10,58,21.80
2017,07,23,10,59,21.80
2017,07,23,11,00,21.80
2017,07,23,11,01,21.70
2017,07,23,11,02,21.60
2017,07,23,11,03,21.50
2017,07,23,11,04,21.50
2017,07,23,11,05,21.40
2017,07,23,11,06,21.40
2017,07,23,11,07,21.40
2017,07,23,11,08,21.30
2017,07,23,11,09,21.30
2017,07,23,11,10,21.40
2017,07,23,11,11,21.50
2017,07,23,11,12,21.70
2017,07,23,11,13,21.90
2017,07,23,11,14,22.20
2017,07,23,11,15,22.30
2017,07,23,11,16,22.30
2017,07,23,11,17,22.20
2017,07,23,11,18,22.20
2017,07,23,11,19,22.20
2017,07,23,11,20,22.30
2017,07,23,11,21,22.30
2017,07,23,11,22,22.30
2017,07,23,11,23,22.40
2017,07,23,11,24,22.40
2017,07,23,11,25,22.30
2017,07,23,11,26,22.30
2017,07,23,11,27,22.30
2017,07,23,11,28,22.30
2017,07,23,11,29,22.30
2017,07,23,11,30,22.40
2017,07,23,11,31,22.40
2017,07,23,11,32,22.40
2017,07,23,11,33,22.40
2017,07,23,11,34,22.30
2017,07,23,11,35,22.30
2017,07,23,11,36,22.20
2017,07,23,11,37,22.10
2017,07,23,11,38,22.00
2017,07,23,11,39,21.80
2017,07,23,11,40,21.70
2017,07,23,11,41,21.50
2017,07,23,11,42,21.40
2017,07,23,11,43,21.40
2017,07,23,11,44,21.30
2017,07,23,11,45,21.30
2017,07,23,11,46,21.30
2017,07,23,11,47,21.30
2017,07,23,11,48,21.20
2017,07,23,11,49,21.10
2017,07,23,11,50,21.10
2017,07,23,11,51,21.10
2017,07,23,11,52,21.10
2017,07,23,11,53,21.00
2017,07,23,11,54,21.00
2017,07,23,11,55,21.00
2017,07,23,11,56,21.10
2017,07,23,11,57,21.20
2017,07,23,11,58,21.40
2017,07,23,11,59,21.50
2017,07,23,12,00,21.60
2017,07,23,12,01,21.70
2017,07,23,12,02,21.70
2017,07,23,12,03,21.70
2017,07,23,12,04,21.80
2017,07,23,12,05,22.00
2017,07,23,12,06,22.20
2017,07,23,12,07,22.20
2017,07,23,12,08,22.10
2017,07,23,12,09,21.90
2017,07,23,12,10,21.80
2017,07,23,12,11,21.80
2017,07,23,12,12,21.90
2017,07,23,12,13,21.90
2017,07,23,12,14,21.90
2017,07,23,12,15,21.90
2017,07,23,12,16,21.80
2017,07,23,12,17,21.80
2017,07,23,12,18,21.90
2017,07,23,12,19,22.00
2017,07,23,12,20,22.20
2017,07,23,12,21,22.30
2017,07,23,12,22,22.40
2017,07,23,12,23,22.40
2017,07,23,12,24,22.40
2017,07,23,12,25,22.40
2017,07,23,12,26,22.40
2017,07,23,12,27,22.40
2017,07,23,12,28,22.30
2017,07,23,12,29,22.20
2017,07,23,12,30,22.20
2017,07,23,12,31,22.10
2017,07,23,12,32,22.10
2017,07,23,12,33,22.20
2017,07,23,12,34,22.20
2017,07,23,12,35,22.30
2017,07,23,12,36,22.30
2017,07,23,12,37,22.40
2017,07,23,12,38,22.50
2017,07,23,12,39,22.60
2017,07,23,12,40,22.60
2017,07,23,12,41,22.60
2017,07,23,12,42,22.50
2017,07,23,12,43,22.40
2017,07,23,12,44,22.40
2017,07,23,12,45,22.30
2017,07,23,12,46,22.40
2017,07,23,12,47,22.50
2017,07,23,12,48,22.50
2017,07,23,12,49,22.60
2017,07,23,12,50,22.70
2017,07,23,12,51,22.70
2017,07,23,12,52,22.60
2017,07,23,12,53,22.40
2017,07,23,12,54,22.30
2017,07,23,12,55,22.20
2017,07,23,12,56,22.20
2017,07,23,12,57,22.10
2017,07,23,12,58,22.00
2017,07,23,12,59,22.00
2017,07,23,13,00,21.90
2017,07,23,13,01,21.80
2017,07,23,13,02,21.90
2017,07,23,13,03,22.00
2017,07,23,13,04,22.00
2017,07,23,13,05,22.20
2017,07,23,13,06,22.40
2017,07,23,13,07,22.50
2017,07,23,13,08,22.60
2017,07,23,13,09,22.60
2017,07,23,13,10,22.50
2017,07,23,13,11,22.40
2017,07,23,13,12,22.50
2017,07,23,13,13,22.50
2017,07,23,13,14,22.50
2017,07,23,13,15,22.40
2017,07,23,13,16,22.40
2017,07,23,13,17,22.40
2017,07,23,13,18,22.40
2017,07,23,13,19,22.40
2017,07,23,13,20,22.40
2017,07,23,13,21,22.30
2017,07,23,13,22,22.20
2017,07,23,13,23,22.00
2017,07,23,13,24,21.90
2017,07,23,13,25,21.90
2017,07,23,13,26,21.80
2017,07,23,13,27,21.80
2017,07,23,13,28,21.80
2017,07,23,13,29,21.70
2017,07,23,13,30,21.60
2017,07,23,13,31,21.60
2017,07,23,13,32,21.60
2017,07,23,13,33,21.60
2017,07,23,13,34,21.60
2017,07,23,13,35,21.50
2017,07,23,13,36,21.50
2017,07,23,13,37,21.40
2017,07,23,13,38,21.40
2017,07,23,13,39,21.40
2017,07,23,13,40,21.40
2017,07,23,13,41,21.40
2017,07,23,13,42,21.40
2017,07,23,13,43,21.40
2017,07,23,13,44,21.50
2017,07,23,13,45,21.60
2017,07,23,13,46,21.70
2017,07,23,13,47,21.80
2017,07,23,13,48,21.80
2017,07,23,13,49,21.90
2017,07,23,13,50,21.80
2017,07,23,13,51,21.90
2017,07,23,13,52,21.90
2017,07,23,13,53,21.90
2017,07,23,13,54,21.90
2017,07,23,13,55,22.00
2017,07,23,13,56,22.10
2017,07,23,13,57,22.20
2017,07,23,13,58,22.20
2017,07,23,13,59,22.20
2017,07,23,14,00,22.30
2017,07,23,14,01,22.30
2017,07,23,14,02,22.30
2017,07,23,14,03,22.40
2017,07,23,14,04,22.40
2017,07,23,14,05,22.40
2017,07,23,14,06,22.30
2017,07,23,14,07,22.20
2017,07,23,14,08,22.20
2017,07,23,14,09,22.10
2017,07,23,14,10,22.10
2017,07,23,14,11,22.00
2017,07,23,14,12,21.90
2017,07,23,14,13,21.90
2017,07,23,14,14,21.90
2017,07,23,14,15,22.00
2017,07,23,14,16,22.00
2017,07,23,14,17,22.00
2017,07,23,14,18,21.90
2017,07,23,14,19,21.80
2017,07,23,14,20,21.80
2017,07,23,14,21,21.70
2017,07,23,14,22,21.60
2017,07,23,14,23,21.60
2017,07,23,14,24,21.50
2017,07,23,14,25,21.50
2017,07,23,14,26,21.60
2017,07,23,14,27,21.70
2017,07,23,14,28,21.70
2017,07,23,14,29,21.80
2017,07,23,14,30,21.80
2017,07,23,14,31,21.80
2017,07,23,14,32,21.80
2017,07,23,14,33,21.90
2017,07,23,14,34,21.90
2017,07,23,14,35,21.90
2017,07,23,14,36,21.90
2017,07,23,14,37,21.80
2017,07,23,14,38,21.80
2017,07,23,14,39,21.80
2017,07,23,14,40,21.80
2017,07,23,14,41,21.70
2017,07,23,14,42,21.70
2017,07,23,14,43,21.70
2017,07,23,14,44,21.70
2017,07,23,14,45,21.70
2017,07,23,14,46,21.70
2017,07,23,14,47,21.70
2017,07,23,14,48,21.80
2017,07,23,14,49,21.80
2017,07,23,14,50,21.90
2017,07,23,14,51,22.00
2017,07,23,14,52,22.10
2017,07,23,14,53,22.10
2017,07,23,14,54,22.20
2017,07,23,14,55,22.20
2017,07,23,14,56,22.30
2017,07,23,14,57,22.30
2017,07,23,14,58,22.40
2017,07,23,14,59,22.40
2017,07,23,15,00,22.40
2017,07,23,15,01,22.40
2017,07,23,15,02,22.40
2017,07,23,15,03,22.30
2017,07,23,15,04,22.30
2017,07,23,15,05,22.20
2017,07,23,15,06,22.20
2017,07,23,15,07,22.10
2017,07,23,15,08,22.10
2017,07,23,15,09,22.10
2017,07,23,15,10,22.10
2017,07,23,15,11,22.10
2017,07,23,15,12,22.20
2017,07,23,15,13,22.20
2017,07,23,15,14,22.20
2017,07,23,15,15,22.20
2017,07,23,15,16,22.20
2017,07,23,15,17,22.20
2017,07,23,15,18,22.20
2017,07,23,15,19,22.10
2017,07,23,15,20,22.10
2017,07,23,15,21,22.10
2017,07,23,15,22,22.20
2017,07,23,15,23,22.20
2017,07,23,15,24,22.30
2017,07,23,15,25,22.30
2017,07,23,15,26,22.20
2017,07,23,15,27,22.20
2017,07,23,15,28,22.30
2017,07,23,15,29,22.30
2017,07,23,15,30,22.30
2017,07,23,15,31,22.40
2017,07,23,15,32,22.40
2017,07,23,15,33,22.40
2017,07,23,15,34,22.50
2017,07,23,15,35,22.50
2017,07,23,15,36,22.70
2017,07,23,15,37,22.80
2017,07,23,15,38,22.90
2017,07,23,15,39,22.80
2017,07,23,15,40,22.80
2017,07,23,15,41,22.80
2017,07,23,15,42,22.90
2017,07,23,15,43,22.90
2017,07,23,15,44,23.00
2017,07,23,15,45,22.90
2017,07,23,15,46,23.00
2017,07,23,15,47,23.00
2017,07,23,15,48,22.90
2017,07,23,15,49,23.00
2017,07,23,15,50,22.90
2017,07,23,15,51,22.80
2017,07,23,15,52,22.80
2017,07,23,15,53,22.90
2017,07,23,15,54,23.00
2017,07,23,15,55,23.00
2017,07,23,15,56,23.10
2017,07,23,15,57,23.10
2017,07,23,15,58,23.10
2017,07,23,15,59,23.10
2017,07,23,16,00,23.20
2017,07,23,16,01,23.40
2017,07,23,16,02,23.50
2017,07,23,16,03,23.50
2017,07,23,16,04,23.60
2017,07,23,16,05,23.50
2017,07,23,16,06,23.40
2017,07,23,16,07,23.40
2017,07,23,16,08,23.40
2017,07,23,16,09,23.40
2017,07,23,16,10,23.40
2017,07,23,16,11,23.50
2017,07,23,16,12,23.60
2017,07,23,16,13,23.50
2017,07,23,16,14,23.50
2017,07,23,16,15,23.60
2017,07,23,16,16,23.50
2017,07,23,16,17,23.40
2017,07,23,16,18,23.30
2017,07,23,16,19,23.20
2017,07,23,16,20,23.20
2017,07,23,16,21,23.20
2017,07,23,16,22,23.40
2017,07,23,16,23,23.60
2017,07,23,16,24,23.70
2017,07,23,16,25,23.80
2017,07,23,16,26,23.90
2017,07,23,16,27,24.00
2017,07,23,16,28,24.00
2017,07,23,16,29,23.90
2017,07,23,16,30,23.80
2017,07,23,16,31,23.60
2017,07,23,16,32,23.60
2017,07,23,16,33,23.50
2017,07,23,16,34,23.50
2017,07,23,16,35,23.50
2017,07,23,16,36,23.60
2017,07,23,16,37,23.60
2017,07,23,16,38,23.70
2017,07,23,16,39,23.80
2017,07,23,16,40,23.80
2017,07,23,16,41,23.80
2017,07,23,16,42,23.80
2017,07,23,16,43,23.80
2017,07,23,16,44,23.90
2017,07,23,16,45,23.90
2017,07,23,16,46,23.90
2017,07,23,16,47,23.70
2017,07,23,16,48,23.60
2017,07,23,16,49,23.50
2017,07,23,16,50,23.40
2017,07,23,16,51,23.30
2017,07,23,16,52,23.30
2017,07,23,16,53,23.30
2017,07,23,16,54,23.30
2017,07,23,16,55,23.30
2017,07,23,16,56,23.40
2017,07,23,16,57,23.50
2017,07,23,16,58,23.50
2017,07,23,16,59,23.40
2017,07,23,17,00,23.40
2017,07,23,17,01,23.30
2017,07,23,17,02,23.40
2017,07,23,17,03,23.40
2017,07,23,17,04,23.50
2017,07,23,17,05,23.50
2017,07,23,17,06,23.50
2017,07,23,17,07,23.50
2017,07,23,17,08,23.50
2017,07,23,17,09,23.60
2017,07,23,17,10,23.60
2017,07,23,17,11,23.60
2017,07,23,17,12,23.60
2017,07,23,17,13,23.60
2017,07,23,17,14,23.60
2017,07,23,17,15,23.60
2017,07,23,17,16,23.50
2017,07,23,17,17,23.50
2017,07,23,17,18,23.60
2017,07,23,17,19,23.60